owner,sensor,date,latitude,longitude,vertical_datum,sea_water_practical_salinity,qcFlag 
DISL,ioos:station:DISL:CATA:1,2018-09-01T00:30:00Z,30.3085,-88.1395,2.321,21.72,1111122 
DISL,ioos:station:DISL:CATA:1,2018-09-01T01:30:00Z,30.3085,-88.1395,2.337,21.6,1111122 
DISL,ioos:station:DISL:CATA:1,2018-09-01T02:30:00Z,30.3085,-88.1395,2.376,21.62,1111122 
DISL,ioos:station:DISL:CATA:1,2018-09-01T03:30:00Z,30.3085,-88.1395,2.44,21.65,1111122 
DISL,ioos:station:DISL:CATA:1,2018-09-01T04:30:00Z,30.3085,-88.1395,2.433,21.81,1111122 
DISL,ioos:station:DISL:CATA:1,2018-09-01T05:30:00Z,30.3085,-88.1395,2.478,21.8,1111122 
DISL,ioos:station:DISL:CATA:1,2018-09-01T06:30:00Z,30.3085,-88.1395,2.497,22.22,1111122 
DISL,ioos:station:DISL:CATA:1,2018-09-01T07:30:00Z,30.3085,-88.1395,2.516,21.99,1111122 
DISL,ioos:station:DISL:CATA:1,2018-09-01T08:30:00Z,30.3085,-88.1395,2.532,22.02,1111122 
DISL,ioos:station:DISL:CATA:1,2018-09-01T09:30:00Z,30.3085,-88.1395,2.532,21.47,1111122 
DISL,ioos:station:DISL:CATA:1,2018-09-01T10:30:00Z,30.3085,-88.1395,2.499,21.79,1111122 
DISL,ioos:station:DISL:CATA:1,2018-09-01T11:30:00Z,30.3085,-88.1395,2.467,21.88,1111122 
DISL,ioos:station:DISL:CATA:1,2018-09-01T12:30:00Z,30.3085,-88.1395,2.449,22.15,1111122 
DISL,ioos:station:DISL:CATA:1,2018-09-01T13:30:00Z,30.3085,-88.1395,2.426,22.09,1111122 
DISL,ioos:station:DISL:CATA:1,2018-09-01T14:30:00Z,30.3085,-88.1395,2.438,22.05,1111122 
DISL,ioos:station:DISL:CATA:1,2018-09-01T15:30:00Z,30.3085,-88.1395,2.383,22.16,1111122 
DISL,ioos:station:DISL:CATA:1,2018-09-01T16:30:00Z,30.3085,-88.1395,2.376,22.02,1111122 
DISL,ioos:station:DISL:CATA:1,2018-09-01T17:30:00Z,30.3085,-88.1395,2.302,22.11,1111122 
DISL,ioos:station:DISL:CATA:1,2018-09-01T18:30:00Z,30.3085,-88.1395,2.248,22.36,1111122 
DISL,ioos:station:DISL:CATA:1,2018-09-01T19:30:00Z,30.3085,-88.1395,2.268,22.53,1111122 
DISL,ioos:station:DISL:CATA:1,2018-09-01T20:30:00Z,30.3085,-88.1395,2.241,22.42,1111122 
DISL,ioos:station:DISL:CATA:1,2018-09-01T21:30:00Z,30.3085,-88.1395,2.311,22.39,1111122 
DISL,ioos:station:DISL:CATA:1,2018-09-01T22:30:00Z,30.3085,-88.1395,2.282,22.16,1111122 
DISL,ioos:station:DISL:CATA:1,2018-09-01T23:30:00Z,30.3085,-88.1395,2.322,22.41,1111122 
DISL,ioos:station:DISL:CATA:1,2018-09-02T00:30:00Z,30.3085,-88.1395,2.361,23.1,1111122 
DISL,ioos:station:DISL:CATA:1,2018-09-02T01:30:00Z,30.3085,-88.1395,2.304,25.35,1111122 
DISL,ioos:station:DISL:CATA:1,2018-09-02T02:30:00Z,30.3085,-88.1395,2.369,25.17,1111122 
DISL,ioos:station:DISL:CATA:1,2018-09-02T03:30:00Z,30.3085,-88.1395,2.356,25.33,1111122 
DISL,ioos:station:DISL:CATA:1,2018-09-02T04:30:00Z,30.3085,-88.1395,2.432,25.1,1111122 
DISL,ioos:station:DISL:CATA:1,2018-09-02T05:30:00Z,30.3085,-88.1395,2.498,24.31,1111122 
DISL,ioos:station:DISL:CATA:1,2018-09-02T06:30:00Z,30.3085,-88.1395,2.534,23.87,1111122 
DISL,ioos:station:DISL:CATA:1,2018-09-02T07:30:00Z,30.3085,-88.1395,2.54,23.92,1111122 
DISL,ioos:station:DISL:CATA:1,2018-09-02T08:30:00Z,30.3085,-88.1395,2.56,24.03,1111122 
DISL,ioos:station:DISL:CATA:1,2018-09-02T09:30:00Z,30.3085,-88.1395,2.568,23.99,1111122 
DISL,ioos:station:DISL:CATA:1,2018-09-02T10:30:00Z,30.3085,-88.1395,2.542,24.12,1111122 
DISL,ioos:station:DISL:CATA:1,2018-09-02T11:30:00Z,30.3085,-88.1395,2.514,24.07,1111122 
DISL,ioos:station:DISL:CATA:1,2018-09-02T12:30:00Z,30.3085,-88.1395,2.459,23.89,1111122 
DISL,ioos:station:DISL:CATA:1,2018-09-02T13:30:00Z,30.3085,-88.1395,2.391,23.84,1111122 
DISL,ioos:station:DISL:CATA:1,2018-09-02T14:30:00Z,30.3085,-88.1395,2.344,23.29,1111122 
DISL,ioos:station:DISL:CATA:1,2018-09-02T15:30:00Z,30.3085,-88.1395,2.255,22.88,1111122 
DISL,ioos:station:DISL:CATA:1,2018-09-02T16:30:00Z,30.3085,-88.1395,2.198,22.69,1111122 
DISL,ioos:station:DISL:CATA:1,2018-09-02T17:30:00Z,30.3085,-88.1395,2.16,22.59,1111122 
DISL,ioos:station:DISL:CATA:1,2018-09-02T18:30:00Z,30.3085,-88.1395,2.152,22.47,1111122 
DISL,ioos:station:DISL:CATA:1,2018-09-02T19:30:00Z,30.3085,-88.1395,2.158,22.44,1111122 
DISL,ioos:station:DISL:CATA:1,2018-09-02T20:30:00Z,30.3085,-88.1395,2.148,22.3,1111122 
DISL,ioos:station:DISL:CATA:1,2018-09-02T21:30:00Z,30.3085,-88.1395,2.145,21.73,1111122 
DISL,ioos:station:DISL:CATA:1,2018-09-02T22:30:00Z,30.3085,-88.1395,2.183,21.42,1111122 
DISL,ioos:station:DISL:CATA:1,2018-09-02T23:30:00Z,30.3085,-88.1395,2.234,20.92,1111122 
DISL,ioos:station:DISL:CATA:1,2018-09-03T00:30:00Z,30.3085,-88.1395,2.265,21.27,1111122 
DISL,ioos:station:DISL:CATA:1,2018-09-03T01:30:00Z,30.3085,-88.1395,2.316,21.22,1111122 
DISL,ioos:station:DISL:CATA:1,2018-09-03T02:30:00Z,30.3085,-88.1395,2.358,21.11,1111122 
DISL,ioos:station:DISL:CATA:1,2018-09-03T03:30:00Z,30.3085,-88.1395,2.392,21.11,1111122 
DISL,ioos:station:DISL:CATA:1,2018-09-03T04:30:00Z,30.3085,-88.1395,2.436,21.0,1111122 
DISL,ioos:station:DISL:CATA:1,2018-09-03T05:30:00Z,30.3085,-88.1395,2.492,20.62,1111122 
DISL,ioos:station:DISL:CATA:1,2018-09-03T06:30:00Z,30.3085,-88.1395,2.502,20.61,1111122 
DISL,ioos:station:DISL:CATA:1,2018-09-03T07:30:00Z,30.3085,-88.1395,2.544,20.51,1111122 
DISL,ioos:station:DISL:CATA:1,2018-09-03T08:30:00Z,30.3085,-88.1395,2.597,20.93,1111122 
DISL,ioos:station:DISL:CATA:1,2018-09-03T09:30:00Z,30.3085,-88.1395,2.615,20.6,1111122 
DISL,ioos:station:DISL:CATA:1,2018-09-03T10:30:00Z,30.3085,-88.1395,2.597,20.58,1111122 
DISL,ioos:station:DISL:CATA:1,2018-09-03T11:30:00Z,30.3085,-88.1395,2.6,20.69,1111122 
DISL,ioos:station:DISL:CATA:1,2018-09-03T12:30:00Z,30.3085,-88.1395,2.616,20.56,1111122 
DISL,ioos:station:DISL:CATA:1,2018-09-03T13:30:00Z,30.3085,-88.1395,2.571,20.54,1111122 
DISL,ioos:station:DISL:CATA:1,2018-09-03T14:30:00Z,30.3085,-88.1395,2.471,20.43,1111122 
DISL,ioos:station:DISL:CATA:1,2018-09-03T15:30:00Z,30.3085,-88.1395,2.353,20.26,1111122 
DISL,ioos:station:DISL:CATA:1,2018-09-03T16:30:00Z,30.3085,-88.1395,2.299,19.75,1111122 
DISL,ioos:station:DISL:CATA:1,2018-09-03T17:30:00Z,30.3085,-88.1395,2.267,19.33,1111122 
DISL,ioos:station:DISL:CATA:1,2018-09-03T18:30:00Z,30.3085,-88.1395,2.214,19.97,1111122 
DISL,ioos:station:DISL:CATA:1,2018-09-03T19:30:00Z,30.3085,-88.1395,2.219,20.24,1111122 
DISL,ioos:station:DISL:CATA:1,2018-09-03T20:30:00Z,30.3085,-88.1395,2.151,20.48,1111122 
DISL,ioos:station:DISL:CATA:1,2018-09-03T21:30:00Z,30.3085,-88.1395,2.126,20.05,1111122 
DISL,ioos:station:DISL:CATA:1,2018-09-03T22:30:00Z,30.3085,-88.1395,2.142,19.52,1111122 
DISL,ioos:station:DISL:CATA:1,2018-09-03T23:30:00Z,30.3085,-88.1395,2.184,19.45,1111122 
DISL,ioos:station:DISL:CATA:1,2018-09-04T00:30:00Z,30.3085,-88.1395,2.238,19.09,1111122 
DISL,ioos:station:DISL:CATA:1,2018-09-04T01:30:00Z,30.3085,-88.1395,2.304,18.86,1111122 
DISL,ioos:station:DISL:CATA:1,2018-09-04T02:30:00Z,30.3085,-88.1395,2.292,18.59,1111122 
DISL,ioos:station:DISL:CATA:1,2018-09-04T03:30:00Z,30.3085,-88.1395,2.326,18.4,1111122 
DISL,ioos:station:DISL:CATA:1,2018-09-04T04:30:00Z,30.3085,-88.1395,2.328,18.17,1111122 
DISL,ioos:station:DISL:CATA:1,2018-09-04T05:30:00Z,30.3085,-88.1395,2.374,17.96,1111122 
DISL,ioos:station:DISL:CATA:1,2018-09-04T06:30:00Z,30.3085,-88.1395,2.487,17.74,1111122 
DISL,ioos:station:DISL:CATA:1,2018-09-04T07:30:00Z,30.3085,-88.1395,2.499,17.75,1111122 
DISL,ioos:station:DISL:CATA:1,2018-09-04T08:30:00Z,30.3085,-88.1395,2.533,17.32,1111122 
DISL,ioos:station:DISL:CATA:1,2018-09-04T09:30:00Z,30.3085,-88.1395,2.55,17.49,1111122 
DISL,ioos:station:DISL:CATA:1,2018-09-04T10:30:00Z,30.3085,-88.1395,2.603,17.36,1111122 
DISL,ioos:station:DISL:CATA:1,2018-09-04T11:30:00Z,30.3085,-88.1395,2.593,16.91,1111122 
DISL,ioos:station:DISL:CATA:1,2018-09-04T12:30:00Z,30.3085,-88.1395,2.614,16.67,1111122 
DISL,ioos:station:DISL:CATA:1,2018-09-04T13:30:00Z,30.3085,-88.1395,2.59,16.38,1111122 
DISL,ioos:station:DISL:CATA:1,2018-09-04T14:30:00Z,30.3085,-88.1395,2.544,16.1,1111122 
DISL,ioos:station:DISL:CATA:1,2018-09-04T15:30:00Z,30.3085,-88.1395,2.46,15.69,1111122 
DISL,ioos:station:DISL:CATA:1,2018-09-04T16:30:00Z,30.3085,-88.1395,2.379,15.38,1111122 
DISL,ioos:station:DISL:CATA:1,2018-09-04T17:30:00Z,30.3085,-88.1395,2.307,15.26,1111122 
DISL,ioos:station:DISL:CATA:1,2018-09-04T18:30:00Z,30.3085,-88.1395,2.307,14.99,1111122 
DISL,ioos:station:DISL:CATA:1,2018-09-04T19:30:00Z,30.3085,-88.1395,2.267,14.89,1111122 
DISL,ioos:station:DISL:CATA:1,2018-09-04T20:30:00Z,30.3085,-88.1395,2.233,14.51,1111122 
DISL,ioos:station:DISL:CATA:1,2018-09-04T21:00:00Z,30.3085,-88.1395,2.222,14.32,1111122 
DISL,ioos:station:DISL:CATA:1,2018-09-05T20:30:00Z,30.3085,-88.1395,2.326,9.84,1111122 
DISL,ioos:station:DISL:CATA:1,2018-09-05T21:30:00Z,30.3085,-88.1395,2.329,9.41,1111122 
DISL,ioos:station:DISL:CATA:1,2018-09-05T23:30:00Z,30.3085,-88.1395,2.309,8.93,1111122 
DISL,ioos:station:DISL:CATA:1,2018-09-06T00:30:00Z,30.3085,-88.1395,2.326,8.98,1111122 
DISL,ioos:station:DISL:CATA:1,2018-09-06T01:30:00Z,30.3085,-88.1395,2.366,8.98,1111122 
DISL,ioos:station:DISL:CATA:1,2018-09-06T02:30:00Z,30.3085,-88.1395,2.401,8.99,1111122 
DISL,ioos:station:DISL:CATA:1,2018-09-06T03:30:00Z,30.3085,-88.1395,2.45,8.97,1111122 
DISL,ioos:station:DISL:CATA:1,2018-09-06T04:30:00Z,30.3085,-88.1395,2.486,8.81,1111122 
DISL,ioos:station:DISL:CATA:1,2018-09-06T05:30:00Z,30.3085,-88.1395,2.515,8.84,1111122 
DISL,ioos:station:DISL:CATA:1,2018-09-06T06:00:00Z,30.3085,-88.1395,2.525,8.79,1111122 
DISL,ioos:station:DISL:CATA:1,2018-09-06T20:30:00Z,30.3085,-88.1395,2.192,7.15,1111122 
DISL,ioos:station:DISL:CATA:1,2018-09-06T21:30:00Z,30.3085,-88.1395,2.143,6.92,1111122 
DISL,ioos:station:DISL:CATA:1,2018-09-06T22:30:00Z,30.3085,-88.1395,2.118,6.79,1111122 
DISL,ioos:station:DISL:CATA:1,2018-09-06T23:30:00Z,30.3085,-88.1395,2.119,6.5,1111122 
DISL,ioos:station:DISL:CATA:1,2018-09-07T00:30:00Z,30.3085,-88.1395,2.126,6.21,1111122 
DISL,ioos:station:DISL:CATA:1,2018-09-07T01:30:00Z,30.3085,-88.1395,2.141,5.82,1111122 
DISL,ioos:station:DISL:CATA:1,2018-09-07T02:30:00Z,30.3085,-88.1395,2.192,5.67,1111122 
DISL,ioos:station:DISL:CATA:1,2018-09-07T03:30:00Z,30.3085,-88.1395,2.26,5.57,1111122 
DISL,ioos:station:DISL:CATA:1,2018-09-07T04:30:00Z,30.3085,-88.1395,2.295,5.6,1111122 
DISL,ioos:station:DISL:CATA:1,2018-09-07T05:30:00Z,30.3085,-88.1395,2.32,5.66,1111122 
DISL,ioos:station:DISL:CATA:1,2018-09-07T06:30:00Z,30.3085,-88.1395,2.344,5.74,1111122 
DISL,ioos:station:DISL:CATA:1,2018-09-07T07:30:00Z,30.3085,-88.1395,2.411,5.98,1111122 
DISL,ioos:station:DISL:CATA:1,2018-09-07T08:30:00Z,30.3085,-88.1395,2.463,6.17,1111122 
DISL,ioos:station:DISL:CATA:1,2018-09-07T09:30:00Z,30.3085,-88.1395,2.507,6.34,1111122 
DISL,ioos:station:DISL:CATA:1,2018-09-07T10:30:00Z,30.3085,-88.1395,2.541,6.4,1111122 
DISL,ioos:station:DISL:CATA:1,2018-09-07T11:30:00Z,30.3085,-88.1395,2.584,6.46,1111122 
DISL,ioos:station:DISL:CATA:1,2018-09-07T12:30:00Z,30.3085,-88.1395,2.634,6.55,1111122 
DISL,ioos:station:DISL:CATA:1,2018-09-07T13:30:00Z,30.3085,-88.1395,2.669,6.66,1111122 
DISL,ioos:station:DISL:CATA:1,2018-09-07T14:30:00Z,30.3085,-88.1395,2.66,6.85,1111122 
DISL,ioos:station:DISL:CATA:1,2018-09-07T15:30:00Z,30.3085,-88.1395,2.631,6.97,1111122 
DISL,ioos:station:DISL:CATA:1,2018-09-07T16:30:00Z,30.3085,-88.1395,2.61,6.95,1111122 
DISL,ioos:station:DISL:CATA:1,2018-09-07T17:30:00Z,30.3085,-88.1395,2.531,6.47,1111122 
DISL,ioos:station:DISL:CATA:1,2018-09-07T18:30:00Z,30.3085,-88.1395,2.391,4.48,1111122 
DISL,ioos:station:DISL:CATA:1,2018-09-07T19:30:00Z,30.3085,-88.1395,2.254,4.31,1111122 
DISL,ioos:station:DISL:CATA:1,2018-09-07T20:30:00Z,30.3085,-88.1395,2.17,4.15,1111122 
DISL,ioos:station:DISL:CATA:1,2018-09-07T21:30:00Z,30.3085,-88.1395,2.086,4.06,1111122 
DISL,ioos:station:DISL:CATA:1,2018-09-07T22:30:00Z,30.3085,-88.1395,2.048,4.01,1111122 
DISL,ioos:station:DISL:CATA:1,2018-09-07T23:30:00Z,30.3085,-88.1395,2.033,4.06,1111122 
DISL,ioos:station:DISL:CATA:1,2018-09-08T00:30:00Z,30.3085,-88.1395,2.03,4.14,1111122 
DISL,ioos:station:DISL:CATA:1,2018-09-08T01:30:00Z,30.3085,-88.1395,2.058,4.28,1111122 
DISL,ioos:station:DISL:CATA:1,2018-09-08T02:30:00Z,30.3085,-88.1395,2.089,4.53,1111122 
DISL,ioos:station:DISL:CATA:1,2018-09-08T03:30:00Z,30.3085,-88.1395,2.12,4.49,1111122 
DISL,ioos:station:DISL:CATA:1,2018-09-08T04:30:00Z,30.3085,-88.1395,2.145,4.28,1111122 
DISL,ioos:station:DISL:CATA:1,2018-09-08T05:30:00Z,30.3085,-88.1395,2.185,4.41,1111122 
DISL,ioos:station:DISL:CATA:1,2018-09-08T06:30:00Z,30.3085,-88.1395,2.238,4.07,1111122 
DISL,ioos:station:DISL:CATA:1,2018-09-08T07:30:00Z,30.3085,-88.1395,2.283,3.98,1111122 
DISL,ioos:station:DISL:CATA:1,2018-09-08T08:30:00Z,30.3085,-88.1395,2.327,3.87,1111122 
DISL,ioos:station:DISL:CATA:1,2018-09-08T09:30:00Z,30.3085,-88.1395,2.373,3.81,1111122 
DISL,ioos:station:DISL:CATA:1,2018-09-08T10:30:00Z,30.3085,-88.1395,2.429,4.78,1111122 
DISL,ioos:station:DISL:CATA:1,2018-09-08T11:30:00Z,30.3085,-88.1395,2.482,5.42,1111122 
DISL,ioos:station:DISL:CATA:1,2018-09-08T12:30:00Z,30.3085,-88.1395,2.556,5.44,1111122 
DISL,ioos:station:DISL:CATA:1,2018-09-08T13:30:00Z,30.3085,-88.1395,2.606,5.38,1111122 
DISL,ioos:station:DISL:CATA:1,2018-09-08T14:30:00Z,30.3085,-88.1395,2.624,5.48,1111122 
DISL,ioos:station:DISL:CATA:1,2018-09-08T15:30:00Z,30.3085,-88.1395,2.625,5.59,1111122 
DISL,ioos:station:DISL:CATA:1,2018-09-08T16:30:00Z,30.3085,-88.1395,2.611,5.67,1111122 
DISL,ioos:station:DISL:CATA:1,2018-09-08T17:30:00Z,30.3085,-88.1395,2.582,5.5,1111122 
DISL,ioos:station:DISL:CATA:1,2018-09-08T18:30:00Z,30.3085,-88.1395,2.509,5.43,1111122 
DISL,ioos:station:DISL:CATA:1,2018-09-08T19:30:00Z,30.3085,-88.1395,2.397,5.17,1111122 
DISL,ioos:station:DISL:CATA:1,2018-09-08T20:30:00Z,30.3085,-88.1395,2.207,2.62,1111122 
DISL,ioos:station:DISL:CATA:1,2018-09-08T21:30:00Z,30.3085,-88.1395,2.1,2.55,1111122 
DISL,ioos:station:DISL:CATA:1,2018-09-08T22:30:00Z,30.3085,-88.1395,2.038,2.6,1111122 
DISL,ioos:station:DISL:CATA:1,2018-09-08T23:30:00Z,30.3085,-88.1395,2.027,2.57,1111122 
DISL,ioos:station:DISL:CATA:1,2018-09-09T00:30:00Z,30.3085,-88.1395,2.044,2.67,1111122 
DISL,ioos:station:DISL:CATA:1,2018-09-09T01:30:00Z,30.3085,-88.1395,2.116,2.76,1111122 
DISL,ioos:station:DISL:CATA:1,2018-09-09T02:30:00Z,30.3085,-88.1395,2.152,2.64,1111122 
DISL,ioos:station:DISL:CATA:1,2018-09-09T03:30:00Z,30.3085,-88.1395,2.157,2.5,1111122 
DISL,ioos:station:DISL:CATA:1,2018-09-09T04:30:00Z,30.3085,-88.1395,2.172,2.54,1111122 
DISL,ioos:station:DISL:CATA:1,2018-09-09T05:30:00Z,30.3085,-88.1395,2.236,2.49,1111122 
DISL,ioos:station:DISL:CATA:1,2018-09-09T06:30:00Z,30.3085,-88.1395,2.269,2.1,1111122 
DISL,ioos:station:DISL:CATA:1,2018-09-09T07:30:00Z,30.3085,-88.1395,2.291,2.07,1111122 
DISL,ioos:station:DISL:CATA:1,2018-09-09T08:30:00Z,30.3085,-88.1395,2.313,1.99,1111122 
DISL,ioos:station:DISL:CATA:1,2018-09-09T09:30:00Z,30.3085,-88.1395,2.327,1.34,1111122 
DISL,ioos:station:DISL:CATA:1,2018-09-09T10:30:00Z,30.3085,-88.1395,2.381,1.27,1111122 
DISL,ioos:station:DISL:CATA:1,2018-09-09T11:30:00Z,30.3085,-88.1395,2.423,1.21,1111122 
DISL,ioos:station:DISL:CATA:1,2018-09-09T12:30:00Z,30.3085,-88.1395,2.481,1.21,1111122 
DISL,ioos:station:DISL:CATA:1,2018-09-09T13:30:00Z,30.3085,-88.1395,2.526,1.15,1111122 
DISL,ioos:station:DISL:CATA:1,2018-09-09T14:30:00Z,30.3085,-88.1395,2.564,1.18,1111122 
DISL,ioos:station:DISL:CATA:1,2018-09-09T15:30:00Z,30.3085,-88.1395,2.557,1.08,1111122 
DISL,ioos:station:DISL:CATA:1,2018-09-09T16:30:00Z,30.3085,-88.1395,2.575,1.16,1111122 
DISL,ioos:station:DISL:CATA:1,2018-09-09T17:30:00Z,30.3085,-88.1395,2.575,1.06,1111122 
DISL,ioos:station:DISL:CATA:1,2018-09-09T18:30:00Z,30.3085,-88.1395,2.55,1.07,1111122 
DISL,ioos:station:DISL:CATA:1,2018-09-09T19:30:00Z,30.3085,-88.1395,2.498,1.06,1111122 
DISL,ioos:station:DISL:CATA:1,2018-09-09T20:30:00Z,30.3085,-88.1395,2.407,1.05,1111122 
DISL,ioos:station:DISL:CATA:1,2018-09-09T21:30:00Z,30.3085,-88.1395,2.295,0.85,1111122 
DISL,ioos:station:DISL:CATA:1,2018-09-09T22:30:00Z,30.3085,-88.1395,2.215,0.75,1111122 
DISL,ioos:station:DISL:CATA:1,2018-09-09T23:30:00Z,30.3085,-88.1395,2.177,0.71,1111122 
DISL,ioos:station:DISL:CATA:1,2018-09-10T00:30:00Z,30.3085,-88.1395,2.19,0.69,1111122 
DISL,ioos:station:DISL:CATA:1,2018-09-10T01:30:00Z,30.3085,-88.1395,2.222,0.65,1111122 
DISL,ioos:station:DISL:CATA:1,2018-09-10T02:30:00Z,30.3085,-88.1395,2.227,0.61,1111122 
DISL,ioos:station:DISL:CATA:1,2018-09-10T03:30:00Z,30.3085,-88.1395,2.222,0.58,1111122 
DISL,ioos:station:DISL:CATA:1,2018-09-10T04:30:00Z,30.3085,-88.1395,2.236,0.58,1111122 
DISL,ioos:station:DISL:CATA:1,2018-09-10T05:30:00Z,30.3085,-88.1395,2.275,0.55,1111122 
DISL,ioos:station:DISL:CATA:1,2018-09-10T06:30:00Z,30.3085,-88.1395,2.304,0.55,1111122 
DISL,ioos:station:DISL:CATA:1,2018-09-10T07:30:00Z,30.3085,-88.1395,2.301,0.48,1111122 
DISL,ioos:station:DISL:CATA:1,2018-09-10T08:30:00Z,30.3085,-88.1395,2.28,0.48,1111122 
DISL,ioos:station:DISL:CATA:1,2018-09-10T09:30:00Z,30.3085,-88.1395,2.292,0.52,1111122 
DISL,ioos:station:DISL:CATA:1,2018-09-10T10:30:00Z,30.3085,-88.1395,2.308,0.51,1111122 
DISL,ioos:station:DISL:CATA:1,2018-09-10T11:30:00Z,30.3085,-88.1395,2.358,0.51,1111122 
DISL,ioos:station:DISL:CATA:1,2018-09-10T12:30:00Z,30.3085,-88.1395,2.358,0.49,1111122 
DISL,ioos:station:DISL:CATA:1,2018-09-10T13:30:00Z,30.3085,-88.1395,2.427,0.51,1111122 
DISL,ioos:station:DISL:CATA:1,2018-09-10T14:30:00Z,30.3085,-88.1395,2.446,0.52,1111122 
DISL,ioos:station:DISL:CATA:1,2018-09-10T15:30:00Z,30.3085,-88.1395,2.458,0.48,1111122 
DISL,ioos:station:DISL:CATA:1,2018-09-10T16:30:00Z,30.3085,-88.1395,2.448,0.48,1111122 
DISL,ioos:station:DISL:CATA:1,2018-09-10T17:30:00Z,30.3085,-88.1395,2.456,0.5,1111122 
DISL,ioos:station:DISL:CATA:1,2018-09-10T18:30:00Z,30.3085,-88.1395,2.427,19.13,1111122 
DISL,ioos:station:DISL:CATA:1,2018-09-10T19:30:00Z,30.3085,-88.1395,2.397,20.14,1111122 
DISL,ioos:station:DISL:CATA:1,2018-09-10T20:30:00Z,30.3085,-88.1395,2.35,21.18,1111122 
DISL,ioos:station:DISL:CATA:1,2018-09-10T21:30:00Z,30.3085,-88.1395,2.293,21.16,1111122 
DISL,ioos:station:DISL:CATA:1,2018-09-10T22:30:00Z,30.3085,-88.1395,2.2,16.91,1111122 
DISL,ioos:station:DISL:CATA:1,2018-09-10T23:30:00Z,30.3085,-88.1395,2.159,16.02,1111122 
DISL,ioos:station:DISL:CATA:1,2018-09-11T00:30:00Z,30.3085,-88.1395,2.155,15.97,1111122 
DISL,ioos:station:DISL:CATA:1,2018-09-11T01:30:00Z,30.3085,-88.1395,2.19,15.62,1111122 
DISL,ioos:station:DISL:CATA:1,2018-09-11T02:30:00Z,30.3085,-88.1395,2.207,15.52,1111122 
DISL,ioos:station:DISL:CATA:1,2018-09-11T03:30:00Z,30.3085,-88.1395,2.236,15.56,1111122 
DISL,ioos:station:DISL:CATA:1,2018-09-11T04:30:00Z,30.3085,-88.1395,2.247,15.81,1111122 
DISL,ioos:station:DISL:CATA:1,2018-09-11T05:30:00Z,30.3085,-88.1395,2.178,15.77,1111122 
DISL,ioos:station:DISL:CATA:1,2018-09-11T06:30:00Z,30.3085,-88.1395,2.238,15.17,1111122 
DISL,ioos:station:DISL:CATA:1,2018-09-11T07:30:00Z,30.3085,-88.1395,2.251,14.97,1111122 
DISL,ioos:station:DISL:CATA:1,2018-09-11T08:30:00Z,30.3085,-88.1395,2.258,14.13,1111122 
DISL,ioos:station:DISL:CATA:1,2018-09-11T09:30:00Z,30.3085,-88.1395,2.255,14.75,1111122 
DISL,ioos:station:DISL:CATA:1,2018-09-11T10:30:00Z,30.3085,-88.1395,2.22,14.49,1111122 
DISL,ioos:station:DISL:CATA:1,2018-09-11T11:30:00Z,30.3085,-88.1395,2.156,12.93,1111122 
DISL,ioos:station:DISL:CATA:1,2018-09-11T12:30:00Z,30.3085,-88.1395,2.186,11.64,1111122 
DISL,ioos:station:DISL:CATA:1,2018-09-11T13:30:00Z,30.3085,-88.1395,2.22,11.18,1111122 
DISL,ioos:station:DISL:CATA:1,2018-09-11T14:30:00Z,30.3085,-88.1395,2.308,10.41,1111122 
DISL,ioos:station:DISL:CATA:1,2018-09-11T15:30:00Z,30.3085,-88.1395,2.316,10.54,1111122 
DISL,ioos:station:DISL:CATA:1,2018-09-11T16:30:00Z,30.3085,-88.1395,2.33,11.5,1111122 
DISL,ioos:station:DISL:CATA:1,2018-09-11T17:30:00Z,30.3085,-88.1395,2.346,12.98,1111122 
DISL,ioos:station:DISL:CATA:1,2018-09-11T18:30:00Z,30.3085,-88.1395,2.376,14.94,1111122 
DISL,ioos:station:DISL:CATA:1,2018-09-11T19:30:00Z,30.3085,-88.1395,2.398,15.1,1111122 
DISL,ioos:station:DISL:CATA:1,2018-09-11T20:30:00Z,30.3085,-88.1395,2.369,15.19,1111122 
DISL,ioos:station:DISL:CATA:1,2018-09-11T21:30:00Z,30.3085,-88.1395,2.332,16.62,1111122 
DISL,ioos:station:DISL:CATA:1,2018-09-11T22:30:00Z,30.3085,-88.1395,2.315,17.75,1111122 
DISL,ioos:station:DISL:CATA:1,2018-09-11T23:30:00Z,30.3085,-88.1395,2.274,13.52,1111122 
DISL,ioos:station:DISL:CATA:1,2018-09-12T00:30:00Z,30.3085,-88.1395,2.254,9.37,1111122 
DISL,ioos:station:DISL:CATA:1,2018-09-12T01:30:00Z,30.3085,-88.1395,2.26,9.76,1111122 
DISL,ioos:station:DISL:CATA:1,2018-09-12T02:30:00Z,30.3085,-88.1395,2.282,10.99,1111122 
DISL,ioos:station:DISL:CATA:1,2018-09-12T03:30:00Z,30.3085,-88.1395,2.308,11.17,1111122 
DISL,ioos:station:DISL:CATA:1,2018-09-12T04:30:00Z,30.3085,-88.1395,2.299,12.06,1111122 
DISL,ioos:station:DISL:CATA:1,2018-09-12T05:30:00Z,30.3085,-88.1395,2.288,12.2,1111122 
DISL,ioos:station:DISL:CATA:1,2018-09-12T06:30:00Z,30.3085,-88.1395,2.289,13.94,1111122 
DISL,ioos:station:DISL:CATA:1,2018-09-12T07:30:00Z,30.3085,-88.1395,2.284,15.46,1111122 
DISL,ioos:station:DISL:CATA:1,2018-09-12T08:30:00Z,30.3085,-88.1395,2.248,16.39,1111122 
DISL,ioos:station:DISL:CATA:1,2018-09-12T09:30:00Z,30.3085,-88.1395,2.237,10.09,1111122 
DISL,ioos:station:DISL:CATA:1,2018-09-12T10:30:00Z,30.3085,-88.1395,2.197,9.23,1111122 
DISL,ioos:station:DISL:CATA:1,2018-09-12T11:30:00Z,30.3085,-88.1395,2.14,9.22,1111122 
DISL,ioos:station:DISL:CATA:1,2018-09-12T12:30:00Z,30.3085,-88.1395,2.122,9.38,1111122 
DISL,ioos:station:DISL:CATA:1,2018-09-12T13:30:00Z,30.3085,-88.1395,2.129,9.19,1111122 
DISL,ioos:station:DISL:CATA:1,2018-09-12T14:00:00Z,30.3085,-88.1395,2.141,8.72,1111122 
DISL,ioos:station:DISL:CATA:1,2018-09-12T15:30:00Z,30.3085,-88.1395,2.199,8.14,1111122 
DISL,ioos:station:DISL:CATA:1,2018-09-12T16:30:00Z,30.3085,-88.1395,2.221,8.14,1111122 
DISL,ioos:station:DISL:CATA:1,2018-09-12T17:30:00Z,30.3085,-88.1395,2.214,8.56,1111122 
DISL,ioos:station:DISL:CATA:1,2018-09-12T18:30:00Z,30.3085,-88.1395,2.212,8.89,1111122 
DISL,ioos:station:DISL:CATA:1,2018-09-12T19:30:00Z,30.3085,-88.1395,2.212,8.45,1111122 
DISL,ioos:station:DISL:CATA:1,2018-09-12T20:30:00Z,30.3085,-88.1395,2.236,12.37,1111122 
DISL,ioos:station:DISL:CATA:1,2018-09-12T21:30:00Z,30.3085,-88.1395,2.248,18.57,1111122 
DISL,ioos:station:DISL:CATA:1,2018-09-12T22:30:00Z,30.3085,-88.1395,2.261,20.74,1111122 
DISL,ioos:station:DISL:CATA:1,2018-09-12T23:30:00Z,30.3085,-88.1395,2.265,21.53,1111122 
DISL,ioos:station:DISL:CATA:1,2018-09-13T00:30:00Z,30.3085,-88.1395,2.264,21.78,1111122 
DISL,ioos:station:DISL:CATA:1,2018-09-13T01:30:00Z,30.3085,-88.1395,2.28,21.83,1111122 
DISL,ioos:station:DISL:CATA:1,2018-09-13T02:30:00Z,30.3085,-88.1395,2.319,21.44,1111122 
DISL,ioos:station:DISL:CATA:1,2018-09-13T03:30:00Z,30.3085,-88.1395,2.343,21.39,1111122 
DISL,ioos:station:DISL:CATA:1,2018-09-13T04:30:00Z,30.3085,-88.1395,2.359,21.79,1111122 
DISL,ioos:station:DISL:CATA:1,2018-09-13T05:30:00Z,30.3085,-88.1395,2.362,21.44,1111122 
DISL,ioos:station:DISL:CATA:1,2018-09-13T06:30:00Z,30.3085,-88.1395,2.36,22.01,1111122 
DISL,ioos:station:DISL:CATA:1,2018-09-13T07:30:00Z,30.3085,-88.1395,2.285,22.02,1111122 
DISL,ioos:station:DISL:CATA:1,2018-09-13T08:30:00Z,30.3085,-88.1395,2.255,21.77,1111122 
DISL,ioos:station:DISL:CATA:1,2018-09-13T09:30:00Z,30.3085,-88.1395,2.231,7.4,1111122 
DISL,ioos:station:DISL:CATA:1,2018-09-13T10:30:00Z,30.3085,-88.1395,2.221,7.24,1111122 
DISL,ioos:station:DISL:CATA:1,2018-09-13T11:30:00Z,30.3085,-88.1395,2.184,6.69,1111122 
DISL,ioos:station:DISL:CATA:1,2018-09-13T12:30:00Z,30.3085,-88.1395,2.145,6.2,1111122 
DISL,ioos:station:DISL:CATA:1,2018-09-13T13:30:00Z,30.3085,-88.1395,2.115,5.84,1111122 
DISL,ioos:station:DISL:CATA:1,2018-09-13T14:30:00Z,30.3085,-88.1395,2.097,5.69,1111122 
DISL,ioos:station:DISL:CATA:1,2018-09-13T15:30:00Z,30.3085,-88.1395,2.106,5.38,1111122 
DISL,ioos:station:DISL:CATA:1,2018-09-13T16:30:00Z,30.3085,-88.1395,2.14,5.2,1111122 
DISL,ioos:station:DISL:CATA:1,2018-09-13T17:30:00Z,30.3085,-88.1395,2.156,5.11,1111122 